DateTimeUTC,F1_A11,F1_S11,BsB_S11,BsG_S11,BsR_S11,BbsB_S11,BbsG_S11,BbsR_S11,BaB_A11,BaG_A11,BaR_A11,Tu_S11,T_S11,Uu_S11,U_S11,P_S11,T1_A11
2021-03-18T06:00:00Z,00040200,20000000,,,,,,,0000.75,0000.04,0000.41,17.6,24.6,07.7,05.0,0648.1,31.0
2021-03-18T06:01:00Z,00040200,20000000,,,,,,,0000.00,0000.72,0000.18,17.6,24.5,07.7,05.0,0648.1,30.9
2021-03-18T06:02:00Z,00040200,20000000,,,,,,,0000.15,-000.09,0000.23,17.6,24.6,07.7,05.0,0648.1,30.9
2021-03-18T06:03:00Z,00040200,60000000,,,,,,,0000.69,0000.22,0000.25,17.6,24.6,07.7,05.0,0648.1,30.9
2021-03-18T06:04:00Z,00040200,40000000,0001.06,0000.21,0000.32,0000.65,0000.02,0000.44,0000.08,0000.54,0000.26,17.7,24.4,08.0,05.3,0649.1,30.9
2021-03-18T06:05:00Z,00040200,00000000,0000.29,0000.61,0000.26,0000.12,0000.05,0000.06,0000.16,-000.25,-000.28,17.7,24.4,08.1,05.4,0649.1,30.9
2021-03-18T06:06:00Z,00040200,00000000,0000.18,0000.19,0000.19,0000.17,0000.11,0000.11,-000.30,0000.17,0000.05,17.7,24.4,07.8,05.2,0648.9,30.9
2021-03-18T06:07:00Z,00040200,00000000,-000.01,0000.23,0000.10,0000.62,-000.24,0000.03,0001.35,0001.01,0001.12,17.7,24.4,07.9,05.3,0649.1,30.9
2021-03-18T06:08:00Z,00040200,00000000,0000.72,0000.48,0000.42,0000.49,0000.05,0000.18,0000.07,-000.03,0000.32,17.7,24.3,08.0,05.3,0649.1,30.9
2021-03-18T06:09:00Z,00040200,00000000,0000.81,0000.44,0000.36,0000.69,0000.20,0000.20,0000.66,0000.90,0000.29,17.7,24.3,08.0,05.3,0649.1,30.9
2021-03-18T06:10:00Z,00040200,00000000,0000.43,0000.27,0000.33,0000.25,0000.06,0000.03,0000.44,0000.39,0000.64,17.8,24.3,07.9,05.3,0649.0,30.9
2021-03-18T06:11:00Z,00040200,00000000,0000.55,0000.53,0000.46,0000.31,0000.17,-000.16,0000.71,0000.62,0000.68,17.8,24.4,08.0,05.3,0649.2,30.9
2021-03-18T06:12:00Z,00040200,00000000,0000.67,0000.62,0000.41,0000.16,0000.20,0000.37,0000.82,0001.07,0000.33,17.9,24.4,08.3,05.6,0649.2,30.9
2021-03-18T06:13:00Z,00040200,00000000,0000.51,0000.41,0000.63,0000.26,-000.09,0000.23,0000.25,0000.29,0000.24,17.9,24.4,08.3,05.6,0649.0,31.0
2021-03-18T06:14:00Z,00040200,00000000,0000.75,0000.47,0000.60,0000.75,-000.02,-000.01,0001.08,0000.49,0001.02,18.0,24.5,08.1,05.4,0649.1,31.0
2021-03-18T06:15:00Z,00040200,00000000,-000.00,0000.43,0000.34,-000.01,-000.10,0000.16,-000.70,-000.10,-000.42,18.0,24.5,08.1,05.5,0649.1,31.0
2021-03-18T06:16:00Z,00040200,00000000,-000.17,0000.40,0000.51,0000.59,0000.34,-000.04,0000.97,0000.70,0001.00,18.1,24.5,07.9,05.4,0649.0,31.0
2021-03-18T06:17:00Z,00040200,00000000,0001.20,0000.56,0000.37,0000.47,0000.01,0000.15,0000.27,-000.18,-000.31,18.1,24.5,07.8,05.3,0649.2,31.0
2021-03-18T06:18:00Z,00040200,00000000,0000.43,0000.53,0000.49,0000.37,-000.06,0000.13,-000.73,-000.24,-000.66,18.0,24.5,07.9,05.3,0649.3,31.0
2021-03-18T06:19:00Z,00040200,00000000,0000.59,0000.35,0000.27,0000.32,-000.01,0000.12,0000.07,0000.43,0000.14,18.0,24.5,07.6,05.1,0649.3,31.0
2021-03-18T06:20:00Z,00040200,00000000,0000.90,0000.45,0000.52,0000.67,-000.01,0000.07,0000.43,0000.31,0000.65,18.0,24.5,07.6,05.1,0649.2,31.0
2021-03-18T06:21:00Z,00040200,00000000,0000.27,0000.09,0000.35,0000.47,0000.30,-000.05,-000.08,0000.05,-000.32,18.0,24.5,07.7,05.2,0649.2,31.0
2021-03-18T06:22:00Z,00040200,00000000,0000.04,0000.18,0000.38,0000.96,-000.00,0000.13,0000.53,0000.04,0000.53,18.0,24.5,07.4,04.9,0649.3,31.0
2021-03-18T06:23:00Z,00040200,00000000,0000.15,0000.41,0000.55,0000.40,-000.04,0000.17,0000.53,0000.11,0000.48,18.0,24.5,07.6,05.1,0649.4,31.0
2021-03-18T06:24:00Z,00040200,00000000,0000.88,0000.30,0000.29,0000.78,0000.03,-000.07,0000.81,0001.38,0000.60,18.0,24.5,07.7,05.1,0649.2,31.0
2021-03-18T06:25:00Z,00040200,00000000,0000.55,0000.38,0000.24,0000.26,-000.09,0000.39,0000.75,0000.69,0000.81,17.9,24.5,07.8,05.2,0649.2,31.0
2021-03-18T06:26:00Z,00040200,00000000,0000.95,0000.21,0000.56,-000.14,0000.23,0000.11,0000.28,-000.02,-000.09,17.9,24.5,07.8,05.2,0649.3,30.9
2021-03-18T06:27:00Z,00040200,00000000,0000.84,0000.17,0000.37,0000.64,-000.28,0000.06,-000.27,-000.09,-000.44,17.9,24.4,07.8,05.3,0649.1,30.9
2021-03-18T06:28:00Z,00040200,00000000,0000.51,0000.43,0000.26,0000.76,-000.13,-000.02,-000.45,-000.27,0000.20,17.9,24.4,07.7,05.1,0649.2,30.9
2021-03-18T06:29:00Z,00040200,00000000,-000.09,0000.62,0000.45,0000.65,0000.12,0000.16,0000.88,0000.55,0000.53,17.9,24.4,07.5,05.0,0649.4,31.0
2021-03-18T06:30:00Z,00040200,00000000,0000.90,0000.33,0000.67,-000.30,0000.06,-000.02,-000.03,0000.31,0000.31,17.9,24.4,07.7,05.2,0649.2,31.0
2021-03-18T06:31:00Z,00040200,00000000,0000.48,0000.37,0000.28,0000.38,-000.05,0000.02,0000.55,-000.18,-000.04,17.9,24.4,07.7,05.1,0649.2,30.9
2021-03-18T06:32:00Z,00040200,00000000,0000.29,0000.39,0000.07,0000.82,0000.12,0000.00,-000.19,-000.12,-000.26,17.9,24.4,07.5,05.1,0649.0,30.9
2021-03-18T06:33:00Z,00040200,00000000,0000.58,0000.13,0000.46,0000.19,0000.03,-000.04,-000.06,0000.53,0000.28,17.9,24.4,07.1,04.7,0649.2,30.9
2021-03-18T06:34:00Z,00040200,00000000,0000.78,0000.41,0000.40,0000.75,-000.06,0000.04,0000.09,0000.09,0000.27,17.9,24.4,07.1,04.8,0649.1,30.9
2021-03-18T06:35:00Z,00040200,00000000,0000.80,0000.36,0000.02,0000.58,-000.29,0000.16,0000.15,-000.02,-000.09,17.8,24.4,07.1,04.8,0649.4,30.9
2021-03-18T06:36:00Z,00040200,00000000,0000.37,0000.46,0000.50,0000.48,0000.02,0000.19,-000.17,0000.35,0000.72,17.8,24.4,07.0,04.7,0649.5,30.9
2021-03-18T06:37:00Z,00040200,00000000,0000.64,0000.36,0000.25,0000.32,0000.01,0000.04,0001.08,0000.35,0000.01,17.8,24.4,07.3,04.9,0649.3,30.9
2021-03-18T06:38:00Z,00040200,00000000,0000.47,0000.62,0000.27,0000.50,-000.09,0000.17,0000.33,0000.21,0000.42,17.8,24.4,07.3,04.9,0649.1,30.9
2021-03-18T06:39:00Z,00040200,00000000,0001.03,0000.39,0000.53,0000.74,0000.18,-000.02,-000.90,-000.46,-000.32,17.8,24.3,07.1,04.7,0649.2,30.9
2021-03-18T06:40:00Z,00040200,00000000,0001.11,0000.37,0000.46,0000.35,0000.04,-000.29,0001.17,0000.81,0000.80,17.8,24.3,06.9,04.6,0649.3,30.9
2021-03-18T06:41:00Z,00040200,00000000,0001.04,0000.64,0000.40,0000.27,0000.13,-000.06,0000.45,0000.65,0000.07,17.7,24.4,07.2,04.8,0649.1,30.9
2021-03-18T06:42:00Z,00040200,00000000,0000.10,0000.62,0000.29,0000.40,0000.05,-000.14,0000.99,0001.12,0000.61,17.7,24.4,07.2,04.8,0649.3,30.9
2021-03-18T06:43:00Z,00040200,00000000,0000.87,0000.44,0000.48,0000.33,0000.23,0000.16,0000.31,0000.04,0000.34,17.7,24.3,07.5,05.0,0649.1,30.9
2021-03-18T06:44:00Z,00040200,00000000,0001.06,0000.17,0000.22,0000.24,-000.10,0000.23,-000.61,-000.23,-000.21,17.7,24.3,07.1,04.8,0649.3,30.9
2021-03-18T06:45:00Z,00040200,00000000,0001.17,0000.60,0000.37,0000.63,-000.06,0000.08,0001.60,0001.01,0000.79,17.7,24.3,07.2,04.8,0649.4,30.9
2021-03-18T06:46:00Z,00040200,00000000,0000.80,0000.73,0000.49,0000.30,-000.08,0000.28,0000.17,0000.19,0000.28,17.7,24.3,07.5,05.0,0649.2,30.9
2021-03-18T06:47:00Z,00040200,00000000,0000.78,0000.28,0000.30,0000.46,-000.24,0000.00,-000.14,0000.10,0000.38,17.7,24.3,07.6,05.1,0649.2,30.9
2021-03-18T06:48:00Z,00040200,00000000,-000.13,0000.61,0000.34,0000.38,0000.28,-000.01,0000.30,0000.26,0000.17,17.7,24.3,07.6,05.0,0649.2,30.9
2021-03-18T06:49:00Z,00040200,00000000,0001.21,0000.71,0000.28,0000.40,-000.08,0000.15,0000.19,0000.31,-000.27,17.6,24.3,07.4,04.9,0649.2,30.9
2021-03-18T06:50:00Z,00040200,00000000,0000.88,0000.56,0000.42,0000.59,-000.01,0000.08,0000.18,0000.06,0000.22,17.6,24.2,07.2,04.8,0649.1,30.9
2021-03-18T06:51:00Z,00040200,00000000,0000.78,0000.45,0000.27,0001.07,-000.05,0000.02,-000.10,0000.22,0000.19,17.6,24.2,07.5,05.0,0649.1,30.9
2021-03-18T06:52:00Z,00040200,00000000,0000.67,0000.49,0000.19,0000.35,0000.14,0000.33,0002.18,0001.77,0001.59,17.6,24.2,07.4,05.0,0649.0,30.9
2021-03-18T06:53:00Z,00040200,00000000,0000.72,0000.60,0000.30,0000.49,-000.03,0000.10,-000.10,-000.33,0000.21,17.6,24.2,07.9,05.2,0649.1,30.9
2021-03-18T06:54:00Z,00040200,00000000,0000.49,0000.68,0000.53,0000.96,0000.15,0000.14,0001.30,0001.32,0000.73,17.6,24.2,08.0,05.3,0649.2,30.9
2021-03-18T06:55:00Z,00040200,00000000,0000.38,0000.21,0000.68,0000.25,0000.14,0000.25,-000.92,-000.49,-000.32,17.6,24.2,07.7,05.1,0649.0,30.9
2021-03-18T06:56:00Z,00040200,00000000,0000.72,0000.34,0000.62,0000.87,-000.08,0000.08,-000.17,-000.13,-000.21,17.7,24.2,07.3,04.9,0649.2,30.9
2021-03-18T06:57:00Z,00040200,40000000,,,,,,,0000.81,0000.53,0000.24,17.8,24.3,07.5,05.0,0649.3,30.9
2021-03-18T06:58:00Z,00040200,60000000,,,,,,,-000.67,-000.43,0000.14,17.5,24.4,07.7,05.0,0648.2,30.9
2021-03-18T06:59:00Z,00040200,20000000,,,,,,,0000.71,0000.10,-000.09,17.5,24.5,07.5,04.9,0648.3,30.9
